AirNav   Air Wisconsin Up To $57,000 Bonus
 
 850 users online  

07KY Blue Lick Airport
Louisville, Kentucky, USA

GOING TO LOUISVILLE?


FAA INFORMATION EFFECTIVE 02 JANUARY 2020

Location

FAA Identifier: 07KY
Lat/Long: 38-04-50.2410N 085-41-35.8530W
38-04.837350N 085-41.597550W
38.0806225,-85.6932925
(estimated)
Elevation: 532 ft. / 162.2 m (surveyed)
Variation: 02W (1985)
From city: 9 miles SE of LOUISVILLE, KY
Time zone: UTC -5 (UTC -4 during Daylight Saving Time)
Zip code: 40229

Airport Operations

Airport use: Private use. Permission required prior to landing
Activation date: 09/1973
Control tower: no
ARTCC: INDIANAPOLIS CENTER
FSS: LOUISVILLE FLIGHT SERVICE STATION
Attendance: DAYLIGHT HOURS
Wind indicator: yes
Segmented circle: yes

Airport Communications

UNICOM: 122.8
WX ASOS at SDF (6 nm N): PHONE 502-367-1492
WX ASOS at LOU (9 nm N): PHONE 502-473-0693
WX AWOS-3 at JVY (17 nm N): 118.575 (812-246-1278)
WX AWOS-3 at BRY (18 nm SE): 119.925 (502-348-1867)

Nearby radio navigation aids

VOR radial/distance  VOR name  Freq  Var
IIUr255/5.6LOUISVILLE VORTAC114.8001E
FTKr053/16.8FORT KNOX VOR/DME109.6001W
EWOr357/26.9NEW HOPE VOR/DME110.8001E
MYSr068/(28.4)MYSTIC VOR108.2001W
FFTr264/(37.5)FRANKFORT VOR109.4003W

 
NDB name  Hdg/Dist  Freq  Var  ID
LAANG220/4.841404WLK .-.. -.-
GODMAN064/15.339603WGOI --. --- ..

Airport Services

Parking: hangars
Airframe service: NONE
Powerplant service: NONE
Bottled oxygen: NONE
Bulk oxygen: NONE

Runway Information

Runway 11/29

Dimensions: 2000 x 100 ft. / 610 x 30 m
Surface: turf
RUNWAY 11  RUNWAY 29
Traffic pattern: rightleft
Markings: NSTD, in good conditionNSTD, in good condition
Obstructions: trees, 450 ft. from runway, 25:1 slope to cleartrees, 1000 ft. from runway, 20:1 slope to clear

Airport Ownership and Management from official FAA records

Ownership: Privately-owned
Owner: THOMAS H. JEAN
1432 HILLVIEW BLVD
HILLVIEW, KY 40229
Phone 502-957-5159
ARPT RELATED CORRESPONDENCE TO ARPT MGR ONLY.
Manager: THOMAS H. JEAN
1432 HILLVIEW BLVD
HILLVIEW, KY 40229
Phone 502-957-5159

Airport Operational Statistics

Aircraft based on the field: 15
Single engine airplanes: 15
    
Aircraft operations: avg 24/week *
98% local general aviation
2% transient general aviation
* for 12-month period ending 14 December 1979

Additional Remarks

PLINES 90FT FROM RWY 29
FOR CD CTC LOUISVILLE APCH AT 502-375-7499

Instrument Procedures

There are no published instrument procedures at 07KY.

Some nearby airports with instrument procedures:

KSDF - Louisville Muhammad Ali International Airport (6 nm N)
KLOU - Bowman Field Airport (9 nm N)
KFTK - Godman Army Airfield (17 nm SW)
KJVY - Clark Regional Airport (17 nm N)
KBRY - Samuels Field Airport (18 nm SE)
 
Loc | Ops | Rwys | IFR | FBO | Links
Com | Nav | Svcs | Stats | Notes
Area around 07KY (Blue Lick Airport)
 
Road maps at: MapQuest Bing Google
 
Aerial photo
WARNING: Photo may not be current or correct
Aerial photo of 07KY (Blue Lick Airport)
Do you have a better or more recent aerial photo of Blue Lick Airport that you would like to share? If so, please send us your photo.

 
Sectional chart

 
Airport distance calculator
Flying to Blue Lick Airport? Find the distance to fly.

From to 07KY

Sunrise and sunset
Times for 20-Jan-2020
 Local
(UTC-5)
 Zulu
(UTC)
Morning civil twilight07:2812:28
Sunrise07:5712:57
Sunset17:5122:51
Evening civil twilight18:2023:20

Current date and time
Zulu (UTC)  20-Jan-2020 12:34:40
Local (UTC-5)  20-Jan-2020 07:34:40
 
METAR
KSDF 
6nm N 
201156Z 35007KT 9SM -SN OVC018 M07/M12 A3054 RMK AO2 SLP351 P0000 60000 T10721122 11072 21083 53013
KLOU 
8nm N 
201153Z 36004KT 10SM OVC016 M08/M12 A3054 RMK AO2 SLP350 T10781122 11078 21083 53011
KJVY 
17nm N 
201215Z AUTO 00000KT 10SM -SN OVC018 M07/M10 A3055 RMK AO2 T10751105
KFTK 
18nm SW 
201215Z AUTO 33004KT 10SM -SN SCT006 OVC013 M09/M12 A3053 RMK AO2 SNE14SNB15 SLP355 $
KBRY 
18nm SE 
201055Z AUTO 01004KT 10SM SCT018 M09/M12 A3050 RMK AO1
TAF
KSDF 
6nm N 
201120Z 2012/2118 35007KT P6SM -SN BKN018 FM201600 36004KT P6SM BKN090
KFTK 
18nm SW 
200925Z 2009/2115 34009KT 9999 OVC014 QNH3051INS BECMG 2016/2017 34009KT 9999 SCT025 QNH3052INS BECMG 2019/2020 VRB06KT 9999 BKN100 QNH3047INS TXM03/2021Z TNM09/2009Z
NOTAMs
Click for the latest NOTAMs
NOTAMs are issued by the DoD/FAA and will open in a separate window not controlled by AirNav.

 

 
 

Would you like to see your business listed on this page?

 If your business provides an interesting product or service to pilots, flight crews, aircraft, or users of the Blue Lick Airport, you should consider listing it here.  To start the listing process, click on the button below
 
Add a business
 

Other Pages about Blue Lick Airport

Update a link
 
Copyright © AirNav, LLC. All rights reserved. Privacy Policy  Contact